Regional Weather Roundup
Issued by NWS Newport/Morehead, NC

Current Version | Previous Version | Text Only | Print | Product List | Glossary Off
Versions: 1 2 3 4 5 6 7 8 9 10 11 12 13 14 15 16 17 18 19 20 21 22 23 24 25 26 27 28 29 30 31 32 33 34 35 36 37 38 39 40 41 42 43 44 45 46 47 48 49 50
000 ASUS42 KMHX 301022 RWRMHX WEATHER ROUNDUP FOR EASTERN NORTH CAROLINA NATIONAL WEATHER SERVICE NEWPORT/MOREHEAD CITY NC 600 AM EDT TUE SEP 30 2014 NOTE: "FAIR" INDICATES FEW OR NO CLOUDS BELOW 12,000 FEET WITH NO SIGNIFICANT WEATHER AND/OR OBSTRUCTIONS TO VISIBILITY NCZ015>017-031-032-045>047-102-103-301100- NORTH COAST CITY SKY/WX TMP DP RH WIND PRES REMARKS EDENTON MOCLDY 62 61 97 NE3 29.91R ELIZABETH CITY CLEAR 64 62 93 N7 29.91F KITTY HAWK MOSUNNY 68 61 79 NE5 29.89S MANTEO PTCLDY 65 61 85 NE5 29.90S $$ NCZ045>047-081-094-103-104-301100- CENTRAL COAST CITY SKY/WX TMP DP RH WIND PRES REMARKS FRISCO CLOUDY 63 62 97 NE7 29.88S SWANQUARTER N/A 64 N/A N/A N2G8 29.85S $$ NCZ095-097-098-100-101-301100- SOUTHERN COAST CITY SKY/WX TMP DP RH WIND PRES REMARKS BEAUFORT CLOUDY 67 65 93 N5 29.87F CEDAR ISLAND N/A 70 N/A N/A NE13 29.91S JACKSONVILLE CLOUDY 63 62 97 N8 29.89S FOG NEWPORT NOT AVBL PINEY ISLAND CLOUDY 72 65 78 NE10 29.87S HAZE WILMINGTON MOCLDY 63 62 97 NE7 29.88S FOG $$ NCZ011>013-027>030-043-044-078>080-089-090>093-098-301100- COASTAL PLAIN CITY SKY/WX TMP DP RH WIND PRES REMARKS AHOSKIE FOG 57 57 98 CALM 29.92S VSB 1/2 CLINTON CLEAR 58 58 100 CALM 29.91F ELIZABETHTOWN CLEAR 60 60 100 CALM 29.91S FOG GOLDSBORO CLOUDY 62 62 98 CALM 29.90R GREENVILLE FOG 59 59 100 CALM 29.93S VSB 1/4 HAVELOCK PTCLDY 66 64 93 N7 29.89S FOG KENANSVILLE CLEAR 59 59 100 CALM 29.92S FOG KINSTON CLOUDY 62 62 99 CALM 29.91F FOG NEW BERN CLEAR 64 61 90 N6 29.91S RICHLANDS PTCLDY 61 57 88 CALM 29.90S ROANOKE RAPIDS NOT AVBL ROCKY MOUNT FOG 62 61 96 N3 29.92S VSB 1/2 WASHINGTON CLOUDY 63 62 97 CALM 29.91S WHITEVILLE CLEAR 60 59 96 CALM 29.90S FOG $$ AMZ130-135-150-152-154-156-158-170-250-252-270-ANZ085-086-088-633-658-670-301100- MARINE OBSERVATIONS STATION/POSITION TIME TEMP WIND PRES WAVE SWELL AIR SEA DIR/SP/G HT/PER HT/PER (UTC) (F) (DEG/KT/KT) (MB) (FT/S) (FT/S) CHESAPEAKE LIGHT 1000 68 40/ 7/ 7 1013.7 BUOY 44014 1000 70 71 20/ 10/ 12 1011.9 2/ 8 2/ 8 DUCK 1000 70 72 30/ 10/ 12 1011.6 2E DUCK 1000 N/A 2/ 8 OREGON INLET 1000 70 73 20/ 8/ 10 1012.0 BUOY 44095 1000 73 N/A 3/ 8 20E OREGON INLET NOT AVBL HATTERAS CG 1000 70 74 30/ 7/ 12 1012.1 DIAMOND BUOY 1000 71 350/ 19/ 21 1010.9 4/ 4 2/ 8 CAPE LOOKOUT 1000 68 20/ 10/ 12 1011.2 BEAUFORT LAB 1000 68 74 10/ 6/ 8 1011.0 30 SE NEW RIVER 1000 73 80 30/ 14/ 17 1010.6 3/ 4 2/ 8 5 SE WRIGHTSVILL 1000 66 76 10/ 14/ 16 N/A BUOY 41002 0924 78 81 220/ 8/ 12 1010.4 3/ 8 3/ 8 BUOY 41004 1000 75 81 20/ 19/ 21 1009.0 5/ 6 2/14 $$

USA.gov is the U.S. government's official web portal to all federal, state and local government web resources and services.